Weather History for West Palm Beach, FL

Change the Weather History Date:

Thursday, November 24, 2011

  Actual Average Record
Temperature  
Mean Temperature 73 °F 71 °F  
Max Temperature 80 °F 79 °F 89 °F (1948)
Min Temperature 66 °F 64 °F 39 °F (1925)
Degree Days  
Heating Degree Days 0 1  
Month to date heating degree days 0 3  
Since 1 July heating degree days 0 4  
Cooling Degree Days 8 7  
Month to date cooling degree days 237 204  
Year to date cooling degree days 4526 3825  
Growing Degree Days 23 (Base 50)    
Moisture  
Dew Point 64 °F    
Average Humidity 77    
Maximum Humidity 100    
Minimum Humidity 54    
Precipitation  
Precipitation 0.00 in 0.13 in 1.85 in (1932)
Month to date precipitation 1.19 3.96  
Year to date precipitation 46.85 58.16  
Snow  
Snow 0.00 in - - ()
Month to date snowfall 0.0  
Since 1 July snowfall 0.0  
Since 1 September snowfall 0.0  
Snow Depth 0.00 in    
Sea Level Pressure  
Sea Level Pressure 30.10 in    
Wind  
Wind Speed 11 mph (North)    
Max Wind Speed 21 mph    
Max Gust Speed 26 mph    
Visibility 10 miles    
Events      
T = Trace of Precipitation, MM = Missing Value Source: NWS Daily Summary

Daily Weather History Graph

Daily Weather History Graph

Search for Another Location

Airport:

Trip Planner

Search our weather history database for the weather conditions in past years. The results will help you decide how hot, cold, wet, or windy it might be!

Date:

Astronomy

Nov. 24, 2011 Rise Set
Actual Time 6:46 AM EST 5:27 PM EST
Civil Twilight 6:21 AM EST 5:52 PM EST
Nautical Twilight 5:53 AM EST 6:20 PM EST
Astronomical Twilight 5:25 AM EST 6:48 PM EST
Moon 6:00 AM EST (11/24) 4:59 PM EST (11/24)
Length of Visible Light 11h 30m
Length of Day
10h 41m
Waning Crescent, 0% of the Moon is Illuminated
Nov 24
Waning Crescent
Nov 25
New
Dec 2
First Quarter
Dec 10
Full
Dec 17
Last Quarter

Hourly Weather History & Observations

Time (EST) Temp. Heat Index Dew Point Humidity Pressure Visibility Wind Dir Wind Speed Gust Speed Precip Events Conditions
12:53 AM 70.0 °F - 70.0 °F 100% 30.04 in 10.0 mi WNW 5.8 mph - N/A   Partly Cloudy
1:29 AM 69.8 °F - 69.8 °F 100% 30.03 in 10.0 mi WNW 6.9 mph - N/A   Mostly Cloudy
1:53 AM 71.1 °F - 71.1 °F 100% 30.03 in 10.0 mi NW 9.2 mph - N/A   Mostly Cloudy
2:34 AM 69.8 °F - 69.8 °F 100% 30.02 in 10.0 mi NW 11.5 mph - N/A   Scattered Clouds
2:53 AM 69.1 °F - 69.1 °F 100% 30.02 in 10.0 mi NW 8.1 mph - N/A   Partly Cloudy
3:53 AM 69.1 °F - 68.0 °F 96% 30.02 in 10.0 mi NNW 10.4 mph - N/A   Partly Cloudy
4:04 AM 69.8 °F - 68.0 °F 94% 30.03 in 10.0 mi NNW 11.5 mph - N/A   Mostly Cloudy
4:53 AM 69.1 °F - 68.0 °F 96% 30.04 in 10.0 mi NNW 9.2 mph - N/A   Mostly Cloudy
5:53 AM 66.9 °F - 66.9 °F 100% 30.05 in 10.0 mi NW 4.6 mph - N/A   Mostly Cloudy
6:02 AM 66.2 °F - 66.2 °F 100% 30.05 in 10.0 mi NW 4.6 mph - N/A   Scattered Clouds
6:53 AM 66.9 °F - 66.9 °F 100% 30.07 in 10.0 mi NW 6.9 mph - N/A   Partly Cloudy
7:53 AM 69.1 °F - 68.0 °F 96% 30.09 in 10.0 mi NW 5.8 mph - N/A   Partly Cloudy
8:53 AM 73.9 °F - 68.0 °F 82% 30.10 in 10.0 mi NNW 9.2 mph - N/A   Scattered Clouds
9:53 AM 79.0 °F - 66.9 °F 66% 30.12 in 10.0 mi NNE 10.4 mph - N/A   Scattered Clouds
10:53 AM 80.1 °F 81.7 °F 64.0 °F 58% 30.12 in 10.0 mi NE 13.8 mph - N/A   Scattered Clouds
11:53 AM 80.1 °F 81.2 °F 62.1 °F 54% 30.12 in 10.0 mi NE 15.0 mph 23.0 mph N/A   Scattered Clouds
12:53 PM 79.0 °F - 62.1 °F 56% 30.10 in 10.0 mi NE 13.8 mph 23.0 mph N/A   Scattered Clouds
1:53 PM 79.0 °F - 62.1 °F 56% 30.09 in 10.0 mi NE 16.1 mph 21.9 mph N/A   Mostly Cloudy
2:53 PM 77.0 °F - 60.1 °F 56% 30.10 in 10.0 mi NNE 12.7 mph 21.9 mph N/A   Mostly Cloudy
3:53 PM 75.9 °F - 62.1 °F 62% 30.11 in 10.0 mi NE 12.7 mph 24.2 mph N/A   Scattered Clouds
4:53 PM 75.0 °F - 59.0 °F 57% 30.12 in 10.0 mi NE 12.7 mph - N/A   Scattered Clouds
5:53 PM 73.9 °F - 57.9 °F 57% 30.13 in 10.0 mi NE 11.5 mph - N/A   Mostly Cloudy
6:53 PM 73.0 °F - 60.1 °F 64% 30.15 in 10.0 mi NE 11.5 mph 20.7 mph N/A   Scattered Clouds
7:53 PM 72.0 °F - 57.9 °F 61% 30.17 in 10.0 mi ENE 13.8 mph 19.6 mph N/A   Scattered Clouds
8:53 PM 72.0 °F - 57.9 °F 61% 30.18 in 10.0 mi NE 10.4 mph 19.6 mph N/A   Scattered Clouds
9:53 PM 73.0 °F - 57.0 °F 57% 30.19 in 10.0 mi NE 13.8 mph - N/A   Scattered Clouds
10:53 PM 73.0 °F - 59.0 °F 61% 30.19 in 10.0 mi ENE 13.8 mph - N/A   Mostly Cloudy
11:53 PM 72.0 °F - 55.0 °F 55% 30.18 in 10.0 mi ENE 8.1 mph - N/A   Scattered Clouds